This is the latest recevied weather packets stored in our database for station/object AI5BL. If no packets are shown the sender has not sent any weather packets the latest 10 day(s).
| Time | Temp. | Humidity | Pressure | Rain* | Wind** | Luminosity | Snow |
|---|---|---|---|---|---|---|---|
| 1778247065 | 17.22° C | 88% | 1018.3 hPa | 0 mm | - | 152 W/m² | - |
| 1778246762 | 16.67° C | 89% | 1018.3 hPa | 0 mm | - | 159 W/m² | - |
| 1778246459 | 16.67° C | 91% | 1018.2 hPa | 0 mm | - | 135 W/m² | - |
| 1778246154 | 16.67° C | 91% | 1018.3 hPa | 0 mm | - | 87 W/m² | - |
| 1778245851 | 16.67° C | 91% | 1018.4 hPa | 0 mm | - | 78 W/m² | - |
| 1778245548 | 16.11° C | 92% | 1018.4 hPa | 0 mm | - | 68 W/m² | - |
| 1778245245 | 16.11° C | 93% | 1018.4 hPa | 0 mm | - | 77 W/m² | - |
| 1778244940 | 16.11° C | 93% | 1018.2 hPa | 0 mm | - | 64 W/m² | - |
| 1778244336 | 16.11° C | 95% | 1018.4 hPa | 0 mm | - | 51 W/m² | - |
| 1778244033 | 15.56° C | 97% | 1018.5 hPa | 0 mm | - | 33 W/m² | - |
| 1778243731 | 15.56° C | 98% | 1018.7 hPa | 0 mm | - | 29 W/m² | - |
| 1778243428 | 15.56° C | 99% | 1018.6 hPa | 0 mm | - | 29 W/m² | - |
| 1778243125 | 15.56° C | 99% | 1018.9 hPa | 0 mm | - | 37 W/m² | - |
| 1778242822 | 15.56° C | 99% | 1019.1 hPa | 0 mm | - | 29 W/m² | - |
| 1778242520 | 15.56° C | 99% | 1019 hPa | 0 mm | - | 33 W/m² | - |
| 1778242218 | 15.56° C | 99% | 1018.9 hPa | 0 mm | - | 34 W/m² | - |
| 1778241914 | 15.56° C | 99% | 1018.8 hPa | 0 mm | - | 40 W/m² | - |
| 1778241613 | 15.56° C | 99% | 1018.7 hPa | 0 mm | - | 33 W/m² | - |
| 1778241310 | 15.56° C | 99% | 1018.5 hPa | 0 mm | - | 27 W/m² | - |
| 1778241006 | 15.56° C | 99% | 1018.6 hPa | 0 mm | - | 23 W/m² | - |
| 1778240704 | 15.56° C | 99% | 1018.7 hPa | 0 mm | - | 20 W/m² | - |
| 1778240400 | 15.56° C | 99% | 1018.7 hPa | 0 mm | - | 20 W/m² | - |
| 1778240098 | 15.56° C | 99% | 1018.4 hPa | 0 mm | - | 16 W/m² | - |
| 1778239794 | 15.56° C | 99% | 1018.8 hPa | 0 mm | - | 13 W/m² | - |
| 1778239485 | 15.56° C | 99% | 1018.6 hPa | 0 mm | - | 12 W/m² | - |
* Rain latest hour (hover to see other rain measurements)
** Current wind speed in m/s (hover to see current wind gust speed)